Simultaneous Nadir Overpasses (SNOs) Predictions

Prediction of SNOs between GOES-15 and NPP Satellite Orbit:

Table of predicted SNOs for the next 14.0 days since TLE Epoch: 1/23/2016
Index Date Time (GOES-15) GOES-15 Lat,Lon NPP Lat,Lon Distance(km) Time Diff (sec)
1 01/24/2016 10:29:01 -0.08,-135.11 -0.07,-135.24 13.91 80
2 01/26/2016 22:29:30 0.08,-135.12 -0.12,-136.00 100.26 80
3 01/27/2016 22:13:25 0.08,-135.15 0.90,-131.47 419.15 80
4 01/29/2016 10:35:11 -0.08,-135.24 0.27,-136.74 171.08 80
5 01/30/2016 10:13:46 -0.08,-135.26 -0.76,-132.21 347.95 80
6 01/31/2016 22:35:40 0.07,-135.23 -0.46,-137.50 259.21 80
7 02/01/2016 22:19:34 0.07,-135.25 0.56,-132.97 259.53 80
8 02/03/2016 10:41:21 -0.07,-135.33 0.60,-138.24 331.73 80
9 02/04/2016 10:19:55
